Regional Weather Roundup
Issued by NWS Spokane, WA

Home | Current Version | Previous Version | Text Only | Print | Product List | Glossary On
Versions: 1 2 3 4 5 6 7 8 9 10 11 12 13 14 15 16 17 18 19 20 21 22 23 24 25 26 27 28 29 30 31 32 33 34 35 36 37 38 39 40 41 42 43 44 45 46 47 48 49 50
000
NZUS01 KOTX 311600
RWROTX
EASTERN WASHINGTON/NORTHERN IDAHO ROUNDUP
NATIONAL WEATHER SERVICE, SPOKANE WA
900 AM PDT MON AUG 31 2015

Note: "fair" indicated few or no clouds below 12,000 feet with no
significant weather and/or obstructions to visibility.

...NORTHEAST WASHINGTON AND NORTHERN IDAHO PANHANDLE...

CITY           SKY/WX    TMP DP  RH WIND       PRES   REMARKS
SPOKANE INTL   CLOUDY    55  45  68 S14       30.04R
SPOKANE DOWNTO CLOUDY    58  46  64 S10       30.05S
COEUR D ALENE  CLOUDY    57  46  67 S13       30.05S
DEER PARK      CLOUDY    54  47  77 S9        30.05R
SANDPOINT      CLOUDY    54  45  71 SW6       30.05R

...SOUTHEAST WASHINGTON AND SOUTHERN IDAHO PANHANDLE...

CITY           SKY/WX    TMP DP  RH WIND       PRES   REMARKS
WALLA WALLA    MOSUNNY   65  45  48 SW13      30.05S
PULLMAN/MOSCOW MOSUNNY   60  45  57 CALM      30.08F
LOWELL           N/A     55  51  86 CALM      30.11F

...COLUMBIA BASIN...

CITY           SKY/WX    TMP DP  RH WIND       PRES   REMARKS
EPHRATA        CLOUDY    64  46  52 S13       29.97R
MOSES LAKE     PTSUNNY   60  47  61 S8        30.00R
TRI CITIES     SUNNY     66  47  50 SW15      30.03R
HERMISTON      MOSUNNY   66  47  50 W13       30.04S
PENDLETON      MOSUNNY   63  44  50 W9        30.06S

...EAST SLOPES CASCADES...

CITY           SKY/WX    TMP DP  RH WIND       PRES   REMARKS
THE DALLES     MOSUNNY   63  48  58 CALM      30.06S
YAKIMA         CLOUDY    64  45  49 VRB3      30.01S
ELLENSBURG     CLOUDY    60  43  53 W5        30.00R
WENATCHEE      CLOUDY    61  43  51 CALM      29.95S
OMAK           CLOUDY    60  42  51 S18       29.93R

...SOUTHERN BRITISH COLUMBIA...

CITY           SKY/WX    TMP DP  RH WIND       PRES   REMARKS

...WESTERN MONTANA...

CITY           SKY/WX    TMP DP  RH WIND       PRES   REMARKS
MISSOULA       PTSUNNY   53  46  77 CALM      30.07F

...NEIGHBORING CITIES...

CITY           SKY/WX    TMP DP  RH WIND       PRES   REMARKS
SEATTLE        CLOUDY    63  51  65 S16G23    29.97F



USA.gov is the U.S. government's official web portal to all federal, state and local government web resources and services.